User: anonymous
Location: Muenchen
(48.1800°N, 11.5800°E)
Time: 10:04:11
(UTC+02:00)
Language:

Iridium 73 - Orbit

View from above orbital plane
View from above orbital plane
View from above satellite
View from above satellite

Ground track
Ground track

The orbit data is extracted from the following two-line orbital elements,

1 25344U 98032C   14202.88966269  .00000174  00000-0  41108-4 0  7564
2 25344 086.4443 291.2676 0002347 091.1157 045.8900 14.48319930853893
Epoch (UTC): 21 July 2014 21:21:06
Eccentricity: 0.0002347
inclination: 86.4443°
perigee height: 729 km
apogee height: 733 km
right ascension of ascending node: 291.2676°
argument of perigee: 91.1157°
revolutions per day: 14.48319930
mean anomaly at epoch: 45.8900°
orbit number at epoch: 85389

The dashed part of the orbit path shows where the satellite is in the earth's shadow,  

DLR